Felix-Klein-Gymnasium, Gttingen, 150m NN
Wetterdaten: aktuell Freitag, 27.01.2023 10:45
Datum Zeit Temp. A. Feuchte A. Luftdruck Regen Wind Richtung Richtung Sonnenschein Taupunkt Windchill Windben
27.01.2023 10:45 1,9 C 94 % 1022,8 hPa 0,0 mm 8,4 km/h (2 Bft) O-NO 63 0 min 1,0 C -0,6 C 17,7 km/h (3 Bft)
27.01.2023 10:30 1,8 C 94 % 1022,7 hPa 0,0 mm 7,9 km/h (2 Bft) O-NO 67 0 min 0,9 C -0,6 C 17,7 km/h (3 Bft)
27.01.2023 10:15 1,8 C 95 % 1022,6 hPa 0,0 mm 6,3 km/h (2 Bft) O-NO 57 0 min 1,1 C -0,1 C 19,3 km/h (3 Bft)
27.01.2023 10:00 1,7 C 95 % 1022,3 hPa 0,0 mm 3,9 km/h (1 Bft) NO 51 0 min 1,0 C 1,7 C 16,1 km/h (3 Bft)
27.01.2023 09:45 1,6 C 95 % 1022,2 hPa 0,0 mm 7,6 km/h (2 Bft) NO 51 0 min 0,9 C -0,7 C 19,3 km/h (3 Bft)
27.01.2023 09:30 1,6 C 95 % 1022,1 hPa 0,0 mm 7,5 km/h (2 Bft) NO 44 0 min 0,9 C -0,7 C 19,3 km/h (3 Bft)
27.01.2023 09:15 1,5 C 95 % 1022,2 hPa 0,0 mm 4,8 km/h (1 Bft) NO 42 0 min 0,8 C 0,2 C 22,5 km/h (4 Bft)
27.01.2023 09:00 1,5 C 95 % 1022,0 hPa 0,0 mm 2,5 km/h (1 Bft) NO 51 0 min 0,8 C 1,5 C 14,5 km/h (3 Bft)
27.01.2023 08:45 1,4 C 95 % 1022,0 hPa 0,0 mm 3,7 km/h (1 Bft) NO 48 0 min 0,7 C 1,4 C 14,5 km/h (3 Bft)
27.01.2023 08:30 1,4 C 95 % 1021,9 hPa 0,0 mm 8,0 km/h (2 Bft) NO 48 0 min 0,7 C -1,1 C 17,7 km/h (3 Bft)
27.01.2023 08:15 1,3 C 95 % 1021,7 hPa 0,0 mm 9,0 km/h (2 Bft) NO 53 0 min 0,6 C -1,5 C 16,1 km/h (3 Bft)
27.01.2023 08:00 1,3 C 95 % 1021,6 hPa 0,0 mm 6,3 km/h (2 Bft) O-NO 57 0 min 0,6 C -0,6 C 16,1 km/h (3 Bft)
27.01.2023 07:45 1,3 C 95 % 1021,6 hPa 0,0 mm 4,2 km/h (1 Bft) O-NO 58 0 min 0,6 C 1,3 C 16,1 km/h (3 Bft)
27.01.2023 07:30 1,3 C 96 % 1021,4 hPa 0,0 mm 6,8 km/h (2 Bft) NO 49 0 min 0,7 C -0,8 C 17,7 km/h (3 Bft)
27.01.2023 07:15 1,3 C 96 % 1021,3 hPa 0,0 mm 5,1 km/h (1 Bft) NO 51 0 min 0,7 C -0,2 C 17,7 km/h (3 Bft)
27.01.2023 07:00 1,2 C 96 % 1021,2 hPa 0,0 mm 6,7 km/h (2 Bft) NO 54 0 min 0,6 C -0,9 C 20,9 km/h (4 Bft)
27.01.2023 06:45 1,2 C 96 % 1021,0 hPa 0,0 mm 8,9 km/h (2 Bft) NO 46 0 min 0,6 C -1,6 C 17,7 km/h (3 Bft)
27.01.2023 06:30 1,2 C 96 % 1020,9 hPa 0,0 mm 8,0 km/h (2 Bft) NO 49 0 min 0,6 C -1,3 C 17,7 km/h (3 Bft)
27.01.2023 06:15 1,2 C 96 % 1020,8 hPa 0,0 mm 10,4 km/h (2 Bft) NO 47 0 min 0,6 C -2,0 C 22,5 km/h (4 Bft)
27.01.2023 06:00 1,1 C 96 % 1020,6 hPa 0,0 mm 10,1 km/h (2 Bft) NO 46 0 min 0,5 C -2,0 C 19,3 km/h (3 Bft)
27.01.2023 05:45 1,1 C 96 % 1020,6 hPa 0,0 mm 5,0 km/h (1 Bft) O-NO 61 0 min 0,5 C -0,3 C 17,7 km/h (3 Bft)
27.01.2023 05:30 1,1 C 96 % 1020,6 hPa 0,0 mm 0,0 km/h (0 Bft) O-NO 65 0 min 0,5 C 1,1 C 0,0 km/h (0 Bft)
27.01.2023 05:15 0,9 C 96 % 1020,6 hPa 0,0 mm 0,6 km/h (0 Bft) O-NO 64 0 min 0,3 C 0,9 C 16,1 km/h (3 Bft)
27.01.2023 05:00 0,8 C 96 % 1020,7 hPa 0,0 mm 3,7 km/h (1 Bft) NO 49 0 min 0,2 C 0,8 C 16,1 km/h (3 Bft)
27.01.2023 04:45 0,8 C 96 % 1020,6 hPa 0,0 mm 5,1 km/h (1 Bft) NO 50 0 min 0,2 C -0,7 C 14,5 km/h (3 Bft)
27.01.2023 04:30 0,7 C 96 % 1020,5 hPa 0,0 mm 5,2 km/h (1 Bft) NO 50 0 min 0,1 C -0,9 C 11,3 km/h (2 Bft)
27.01.2023 04:15 0,7 C 96 % 1020,5 hPa 0,0 mm 0,4 km/h (0 Bft) NO 50 0 min 0,1 C 0,7 C 9,7 km/h (2 Bft)
27.01.2023 04:00 0,6 C 96 % 1020,5 hPa 0,0 mm 2,8 km/h (1 Bft) NO 50 0 min 0,0 C 0,6 C 9,7 km/h (2 Bft)
27.01.2023 03:45 0,6 C 96 % 1020,4 hPa 0,0 mm 2,2 km/h (1 Bft) NO 50 0 min 0,0 C 0,6 C 12,9 km/h (3 Bft)
27.01.2023 03:30 0,6 C 96 % 1020,4 hPa 0,0 mm 5,2 km/h (1 Bft) NO 50 0 min 0,0 C -1,0 C 12,9 km/h (3 Bft)
27.01.2023 03:15 0,6 C 96 % 1020,4 hPa 0,0 mm 4,8 km/h (1 Bft) NO 50 0 min 0,0 C -0,8 C 11,3 km/h (2 Bft)
27.01.2023 03:00 0,5 C 96 % 1020,4 hPa 0,0 mm 4,3 km/h (1 Bft) NO 50 0 min -0,1 C 0,5 C 11,3 km/h (2 Bft)
27.01.2023 02:45 0,4 C 96 % 1020,4 hPa 0,0 mm 1,7 km/h (1 Bft) NO 50 0 min -0,2 C 0,4 C 9,7 km/h (2 Bft)
27.01.2023 02:30 0,4 C 96 % 1020,3 hPa 0,0 mm 1,4 km/h (1 Bft) NO 50 0 min -0,2 C 0,4 C 12,9 km/h (3 Bft)
27.01.2023 02:15 0,3 C 96 % 1020,2 hPa 0,0 mm 1,6 km/h (1 Bft) NO 50 0 min -0,3 C 0,3 C 12,9 km/h (3 Bft)
27.01.2023 02:00 0,3 C 96 % 1020,1 hPa 0,0 mm 2,2 km/h (1 Bft) NO 50 0 min -0,3 C 0,3 C 11,3 km/h (2 Bft)
27.01.2023 01:45 0,3 C 96 % 1020,1 hPa 0,0 mm 2,2 km/h (1 Bft) NO 50 0 min -0,3 C 0,3 C 11,3 km/h (2 Bft)
27.01.2023 01:30 0,3 C 96 % 1020,2 hPa 0,0 mm 1,2 km/h (1 Bft) NO 47 0 min -0,3 C 0,3 C 9,7 km/h (2 Bft)
27.01.2023 01:15 0,3 C 96 % 1020,3 hPa 0,0 mm 4,0 km/h (1 Bft) NO 47 0 min -0,3 C 0,3 C 12,9 km/h (3 Bft)
27.01.2023 01:00 0,3 C 96 % 1020,3 hPa 0,0 mm 3,2 km/h (1 Bft) NO 49 0 min -0,3 C 0,3 C 12,9 km/h (3 Bft)
27.01.2023 00:45 0,3 C 96 % 1020,3 hPa 0,0 mm 0,0 km/h (0 Bft) NO 49 0 min -0,3 C 0,3 C 0,0 km/h (0 Bft)
27.01.2023 00:30 0,3 C 96 % 1020,3 hPa 0,0 mm 1,7 km/h (1 Bft) NO 49 0 min -0,3 C 0,3 C 11,3 km/h (2 Bft)
27.01.2023 00:15 0,3 C 96 % 1020,3 hPa 0,0 mm 2,7 km/h (1 Bft) NO 49 0 min -0,3 C 0,3 C 12,9 km/h (3 Bft)
27.01.2023 00:00 0,2 C 96 % 1020,2 hPa 0,0 mm 5,9 km/h (2 Bft) NO 51 0 min -0,4 C -1,8 C 12,9 km/h (3 Bft)
26.01.2023 23:45 0,2 C 96 % 1020,1 hPa 0,0 mm 8,0 km/h (2 Bft) NO 45 0 min -0,4 C -2,5 C 16,1 km/h (3 Bft)
26.01.2023 23:30 0,2 C 96 % 1020,1 hPa 0,0 mm 6,4 km/h (2 Bft) NO 45 0 min -0,4 C -2,0 C 16,1 km/h (3 Bft)
26.01.2023 23:15 0,1 C 96 % 1020,3 hPa 0,0 mm 4,8 km/h (1 Bft) O-NO 67 0 min -0,5 C -1,4 C 17,7 km/h (3 Bft)
26.01.2023 23:00 0,1 C 96 % 1020,3 hPa 0,0 mm 0,9 km/h (0 Bft) N-NO 31 0 min -0,5 C 0,1 C 11,3 km/h (2 Bft)
26.01.2023 22:45 0,0 C 96 % 1020,3 hPa 0,0 mm 0,0 km/h (0 Bft) N-NO 22 0 min -0,6 C 0,0 C 0,0 km/h (0 Bft)
26.01.2023 22:30 -0,1 C 96 % 1020,3 hPa 0,0 mm 0,0 km/h (0 Bft) N-NO 22 0 min -0,7 C -0,1 C 0,0 km/h (0 Bft)
26.01.2023 22:15 -0,1 C 96 % 1020,2 hPa 0,0 mm 0,0 km/h (0 Bft) N-NO 22 0 min -0,7 C -0,1 C 0,0 km/h (0 Bft)
26.01.2023 22:00 -0,2 C 96 % 1020,3 hPa 0,0 mm 0,0 km/h (0 Bft) N-NO 22 0 min -0,8 C -0,2 C 0,0 km/h (0 Bft)
26.01.2023 21:45 -0,2 C 96 % 1020,3 hPa 0,0 mm 0,0 km/h (0 Bft) N-NO 22 0 min -0,8 C -0,2 C 0,0 km/h (0 Bft)
26.01.2023 21:30 -0,2 C 95 % 1020,3 hPa 0,0 mm 0,0 km/h (0 Bft) N-NO 22 0 min -0,9 C -0,2 C 0,0 km/h (0 Bft)
26.01.2023 21:15 -0,2 C 95 % 1020,3 hPa 0,0 mm 0,0 km/h (0 Bft) N-NO 22 0 min -0,9 C -0,2 C 0,0 km/h (0 Bft)
26.01.2023 21:00 -0,2 C 95 % 1020,3 hPa 0,0 mm 0,0 km/h (0 Bft) N-NO 22 0 min -0,9 C -0,2 C 0,0 km/h (0 Bft)
26.01.2023 20:45 -0,3 C 95 % 1020,3 hPa 0,0 mm 0,0 km/h (0 Bft) N-NO 22 0 min -1,0 C -0,3 C 0,0 km/h (0 Bft)
26.01.2023 20:30 -0,3 C 95 % 1020,3 hPa 0,0 mm 0,0 km/h (0 Bft) N-NO 22 0 min -1,0 C -0,3 C 0,0 km/h (0 Bft)
26.01.2023 20:15 -0,3 C 95 % 1020,2 hPa 0,0 mm 0,0 km/h (0 Bft) N-NO 22 0 min -1,0 C -0,3 C 0,0 km/h (0 Bft)
26.01.2023 20:00 -0,3 C 95 % 1020,4 hPa 0,0 mm 0,0 km/h (0 Bft) N-NO 22 0 min -1,0 C -0,3 C 0,0 km/h (0 Bft)
26.01.2023 19:45 -0,2 C 95 % 1020,4 hPa 0,0 mm 0,0 km/h (0 Bft) N-NO 22 0 min -0,9 C -0,2 C 0,0 km/h (0 Bft)
26.01.2023 19:30 -0,3 C 95 % 1020,2 hPa 0,0 mm 0,0 km/h (0 Bft) N-NO 22 0 min -1,0 C -0,3 C 0,0 km/h (0 Bft)
26.01.2023 19:15 -0,3 C 95 % 1020,2 hPa 0,0 mm 0,0 km/h (0 Bft) N-NO 22 0 min -1,0 C -0,3 C 0,0 km/h (0 Bft)
26.01.2023 19:00 -0,3 C 95 % 1020,1 hPa 0,0 mm 0,0 km/h (0 Bft) N-NO 22 0 min -1,0 C -0,3 C 0,0 km/h (0 Bft)
26.01.2023 18:45 -0,3 C 95 % 1020,3 hPa 0,0 mm 0,0 km/h (0 Bft) N-NO 22 0 min -1,0 C -0,3 C 0,0 km/h (0 Bft)
26.01.2023 18:30 -0,3 C 95 % 1020,2 hPa 0,0 mm 0,0 km/h (0 Bft) N-NO 22 0 min -1,0 C -0,3 C 0,0 km/h (0 Bft)
26.01.2023 18:15 -0,4 C 94 % 1020,2 hPa 0,0 mm 0,0 km/h (0 Bft) N-NO 22 0 min -1,2 C -0,4 C 0,0 km/h (0 Bft)
26.01.2023 18:00 -0,4 C 95 % 1020,2 hPa 0,0 mm 0,0 km/h (0 Bft) N-NO 22 0 min -1,1 C -0,4 C 0,0 km/h (0 Bft)
26.01.2023 17:45 -0,4 C 94 % 1020,3 hPa 0,0 mm 0,0 km/h (0 Bft) N-NO 22 0 min -1,2 C -0,4 C 0,0 km/h (0 Bft)
26.01.2023 17:30 -0,4 C 94 % 1020,2 hPa 0,0 mm 0,0 km/h (0 Bft) N-NO 22 0 min -1,2 C -0,4 C 0,0 km/h (0 Bft)
26.01.2023 17:15 -0,5 C 94 % 1020,2 hPa 0,0 mm 0,0 km/h (0 Bft) N-NO 22 0 min -1,3 C -0,5 C 0,0 km/h (0 Bft)
26.01.2023 17:00 -0,4 C 94 % 1020,1 hPa 0,0 mm 0,0 km/h (0 Bft) N-NO 22 0 min -1,2 C -0,4 C 0,0 km/h (0 Bft)
26.01.2023 16:45 -0,4 C 93 % 1020,1 hPa 0,0 mm 0,1 km/h (0 Bft) N-NO 22 0 min -1,4 C -0,4 C 4,8 km/h (1 Bft)
26.01.2023 16:30 -0,3 C 93 % 1020,0 hPa 0,0 mm 0,0 km/h (0 Bft) N-NO 13 0 min -1,3 C -0,3 C 0,0 km/h (0 Bft)
26.01.2023 16:15 -0,3 C 92 % 1020,1 hPa 0,0 mm 0,0 km/h (0 Bft) N-NO 13 0 min -1,4 C -0,3 C 0,0 km/h (0 Bft)
26.01.2023 16:00 -0,3 C 92 % 1020,0 hPa 0,0 mm 0,0 km/h (0 Bft) N-NO 13 0 min -1,4 C -0,3 C 0,0 km/h (0 Bft)
26.01.2023 15:45 -0,3 C 92 % 1019,8 hPa 0,0 mm 0,0 km/h (0 Bft) N-NO 13 0 min -1,4 C -0,3 C 0,0 km/h (0 Bft)
26.01.2023 15:30 -0,3 C 92 % 1019,9 hPa 0,0 mm 0,0 km/h (0 Bft) N-NO 13 0 min -1,4 C -0,3 C 0,0 km/h (0 Bft)
26.01.2023 15:15 -0,4 C 92 % 1019,8 hPa 0,0 mm 0,0 km/h (0 Bft) N-NO 13 0 min -1,5 C -0,4 C 0,0 km/h (0 Bft)
26.01.2023 15:00 -0,4 C 92 % 1019,9 hPa 0,0 mm 0,0 km/h (0 Bft) N-NO 13 0 min -1,5 C -0,4 C 0,0 km/h (0 Bft)
26.01.2023 14:45 -0,4 C 92 % 1020,0 hPa 0,0 mm 0,0 km/h (0 Bft) N-NO 13 0 min -1,5 C -0,4 C 0,0 km/h (0 Bft)
26.01.2023 14:30 -0,5 C 92 % 1019,8 hPa 0,0 mm 0,0 km/h (0 Bft) N-NO 13 0 min -1,6 C -0,5 C 0,0 km/h (0 Bft)
26.01.2023 14:15 -0,6 C 93 % 1019,8 hPa 0,0 mm 0,0 km/h (0 Bft) N-NO 13 0 min -1,6 C -0,6 C 0,0 km/h (0 Bft)
26.01.2023 14:00 -0,6 C 93 % 1019,8 hPa 0,0 mm 0,0 km/h (0 Bft) N-NO 13 0 min -1,6 C -0,6 C 0,0 km/h (0 Bft)
26.01.2023 13:45 -0,7 C 94 % 1019,9 hPa 0,0 mm 0,0 km/h (0 Bft) N-NO 13 0 min -1,5 C -0,7 C 0,0 km/h (0 Bft)
26.01.2023 13:30 -0,8 C 94 % 1020,1 hPa 0,0 mm 0,0 km/h (0 Bft) N-NO 13 0 min -1,6 C -0,8 C 0,0 km/h (0 Bft)
26.01.2023 13:15 -1,1 C 95 % 1020,3 hPa 0,0 mm 0,0 km/h (0 Bft) N-NO 13 0 min -1,8 C -1,1 C 0,0 km/h (0 Bft)
26.01.2023 13:00 -1,2 C 95 % 1020,3 hPa 0,0 mm 0,0 km/h (0 Bft) N-NO 13 0 min -1,9 C -1,2 C 0,0 km/h (0 Bft)
26.01.2023 12:45 -1,4 C 95 % 1020,6 hPa 0,0 mm 0,0 km/h (0 Bft) N-NO 13 0 min -2,1 C -1,4 C 0,0 km/h (0 Bft)
26.01.2023 12:30 -1,5 C 95 % 1020,7 hPa 0,0 mm 0,0 km/h (0 Bft) N-NO 13 0 min -2,2 C -1,5 C 0,0 km/h (0 Bft)
26.01.2023 12:15 -1,5 C 95 % 1021,0 hPa 0,0 mm 0,0 km/h (0 Bft) N-NO 13 0 min -2,2 C -1,5 C 0,0 km/h (0 Bft)
26.01.2023 12:00 -1,7 C 95 % 1021,1 hPa 0,0 mm 0,0 km/h (0 Bft) N-NO 13 0 min -2,4 C -1,7 C 0,0 km/h (0 Bft)
26.01.2023 11:45 -1,8 C 95 % 1021,1 hPa 0,0 mm 0,0 km/h (0 Bft) N-NO 13 0 min -2,5 C -1,8 C 0,0 km/h (0 Bft)
26.01.2023 11:30 -1,9 C 95 % 1021,4 hPa 0,0 mm 0,0 km/h (0 Bft) N-NO 13 0 min -2,6 C -1,9 C 0,0 km/h (0 Bft)
26.01.2023 11:15 -2,0 C 94 % 1021,6 hPa 0,0 mm 0,0 km/h (0 Bft) N-NO 13 0 min -2,8 C -2,0 C 0,0 km/h (0 Bft)
26.01.2023 11:00 -2,1 C 95 % 1021,7 hPa 0,0 mm 0,0 km/h (0 Bft) N-NO 13 0 min -2,8 C -2,1 C 0,0 km/h (0 Bft)
_ Min-Zeit 11:00 14:30 14:00 - 11:00 - - - 11:15 23:45 11:00
Minimum _ -2,1 C 92 % 1019,8 hPa - 0,0 km/h (0 Bft) - - - -2,8 C -2,5 C 0,0 km/h (0 Bft)
_ Max-Zeit 10:45 21:45 10:45 11:00 06:15 - - 11:00 10:15 10:00 06:15
Maximum _ 1,9 C 96 % 1022,8 hPa 0,0 mm 10,4 km/h
NO (2 Bft)
- - 0 min 1,1 C 1,7 C 22,5 km/h
NO (4 Bft)
Durchschnitt _ -0,0 C 95 % 1020,7 hPa #0,0 mm 2,2 km/h (1 Bft) NO - #0 min. -0,7 C -0,5 C 6,8 km/h (2 Bft)